Location: Bu�n Treun
(12.1333°N, 108.3167°E)
Time: 12:26:17
(UTC+00:00)

BREEZE-M DEB (TANK) - Pass Details

Date: 13 July 2020
Orbit: 283 x 20426 km, 49.4° (Epoch: 06 August)

Event Time Altitude Azimuth Distance (km) Brightness Sun altitude
Exits shadow 21:48:10 15° 267° (W) 914 3.4 -10.1°
Maximum altitude 21:49:25 26° 319° (NW) 716 3.3 -9.8°
Drops below altitude 10° 21:52:12 10° 20° (NNE) 1,789 6.1 -9.2°
Sets 21:56:01 0° 33° (NNE) 3,737 8.1 -8.3°
